| time (UTC) | temp F | wind direction | speed knots | gust knots | rain 1hr in | rain 24hr in | rain mn in | humidity % | barometer mb |
| 20260507080449 | 58 | 149 | 0.0 | 0.0 | 0.00 | 0.00 | 0.00 | 86 | 1018.5 |
| 20260507075949 | 58 | 149 | 0.0 | 0.0 | 0.00 | 0.00 | 0.00 | 85 | 1018.3 |
| 20260507075449 | 58 | 149 | 0.0 | 0.9 | 0.00 | 0.00 | 0.00 | 85 | 1018.3 |
| 20260507074949 | 58 | 133 | 0.0 | 0.0 | 0.00 | 0.00 | 0.00 | 85 | 1018.3 |
| 20260507074449 | 58 | 133 | 0.0 | 0.0 | 0.00 | 0.00 | 0.00 | 85 | 1018.3 |
| 20260507073949 | 58 | 133 | 0.0 | 0.0 | 0.00 | 0.00 | 0.00 | 84 | 1018.2 |
| 20260507073449 | 58 | 133 | 0.0 | 0.0 | 0.00 | 0.00 | 0.00 | 84 | 1018.2 |
| 20260507072949 | 58 | 133 | 0.0 | 0.0 | 0.00 | 0.00 | 0.00 | 84 | 1018.2 |
| 20260507072449 | 58 | 111 | 0.0 | 1.7 | 0.00 | 0.00 | 0.00 | 83 | 1018.2 |
| 20260507071949 | 59 | 168 | 0.0 | 0.9 | 0.00 | 0.00 | 0.00 | 82 | 1018.3 |
| 20260507071449 | 59 | 45 | 0.0 | 0.0 | 0.00 | 0.00 | 0.00 | 83 | 1018.3 |
| 20260507070949 | 59 | 45 | 0.0 | 0.0 | 0.00 | 0.00 | 0.00 | 83 | 1018.3 |
| 20260507070449 | 59 | 45 | 0.0 | 0.0 | 0.00 | 0.00 | 0.00 | 82 | 1018.6 |
| 20260507065949 | 59 | 45 | 0.0 | 0.0 | 0.00 | 0.00 | 0.00 | 82 | 1018.6 |
| 20260507065449 | 59 | 45 | 0.0 | 0.0 | 0.00 | 0.00 | 0.00 | 82 | 1018.6 |
| 20260507064949 | 59 | 45 | 0.0 | 0.0 | 0.00 | 0.00 | 0.00 | 82 | 1018.7 |
| 20260507064449 | 59 | 45 | 0.0 | 0.0 | 0.00 | 0.00 | 0.00 | 82 | 1018.7 |
| 20260507063949 | 59 | 45 | 0.0 | 0.0 | 0.00 | 0.00 | 0.00 | 82 | 1018.8 |
| 20260507063449 | 59 | 45 | 0.0 | 0.0 | 0.00 | 0.00 | 0.00 | 82 | 1018.9 |
| 20260507062949 | 59 | 45 | 0.0 | 0.0 | 0.00 | 0.00 | 0.00 | 81 | 1018.9 |
| 20260507062449 | 59 | 45 | 0.0 | 0.0 | 0.00 | 0.00 | 0.00 | 81 | 1018.8 |
| 20260507061949 | 59 | 45 | 0.0 | 0.0 | 0.00 | 0.00 | 0.00 | 81 | 1018.8 |
| 20260507061449 | 59 | 45 | 0.0 | 0.0 | 0.00 | 0.00 | 0.00 | 81 | 1018.8 |
| 20260507060949 | 59 | 54 | 0.0 | 0.0 | 0.00 | 0.00 | 0.00 | 81 | 1018.9 |
| 20260507060449 | 59 | 74 | 0.0 | 0.0 | 0.00 | 0.00 | 0.00 | 82 | 1018.9 |
| 20260507055949 | 59 | 74 | 0.0 | 0.0 | 0.00 | 0.00 | 0.00 | 82 | 1018.9 |
| 20260507055449 | 59 | 74 | 0.0 | 0.0 | 0.00 | 0.00 | 0.00 | 81 | 1018.9 |
| 20260507054949 | 59 | 74 | 0.0 | 0.0 | 0.00 | 0.00 | 0.00 | 81 | 1018.8 |
| 20260507054449 | 59 | 74 | 0.0 | 0.0 | 0.00 | 0.00 | 0.00 | 81 | 1018.7 |
| 20260507053949 | 59 | 74 | 0.0 | 0.0 | 0.00 | 0.00 | 0.00 | 81 | 1018.6 |
| 20260507053449 | 60 | 74 | 0.0 | 0.0 | 0.00 | 0.00 | 0.00 | 81 | 1018.6 |
| 20260507052949 | 60 | 2 | 0.0 | 0.0 | 0.00 | 0.00 | 0.00 | 81 | 1018.5 |
| 20260507052449 | 60 | 2 | 0.0 | 0.9 | 0.00 | 0.00 | 0.00 | 82 | 1018.3 |
| 20260507051949 | 60 | 12 | 0.9 | 0.9 | 0.00 | 0.00 | 0.00 | 81 | 1018.3 |
| 20260507051449 | 60 | 56 | 0.0 | 0.9 | 0.00 | 0.00 | 0.00 | 81 | 1018.1 |
| 20260507050949 | 60 | 63 | 0.9 | 1.7 | 0.00 | 0.00 | 0.00 | 81 | 1018.2 |
| 20260507050449 | 60 | 139 | 0.9 | 1.7 | 0.00 | 0.00 | 0.00 | 80 | 1018.1 |
| 20260507045949 | 61 | 232 | 0.0 | 0.0 | 0.00 | 0.00 | 0.00 | 80 | 1018.2 |
| 20260507045449 | 61 | 243 | 0.0 | 1.7 | 0.00 | 0.00 | 0.00 | 81 | 1018.1 |
| 20260507044949 | 61 | 291 | 0.0 | 0.0 | 0.00 | 0.00 | 0.00 | 81 | 1018.0 |
| 20260507044449 | 61 | 291 | 0.0 | 0.9 | 0.00 | 0.00 | 0.00 | 82 | 1018.1 |
| 20260507043949 | 61 | 299 | 0.9 | 1.7 | 0.00 | 0.00 | 0.00 | 82 | 1018.1 |
| 20260507043449 | 61 | 288 | 0.0 | 0.9 | 0.00 | 0.00 | 0.00 | 81 | 1018.1 |
| 20260507042949 | 61 | 240 | 0.9 | 1.7 | 0.00 | 0.00 | 0.00 | 81 | 1018.1 |
| 20260507042449 | 61 | 232 | 1.7 | 1.7 | 0.00 | 0.00 | 0.00 | 81 | 1018.2 |
| 20260507041949 | 61 | 230 | 0.0 | 0.0 | 0.00 | 0.00 | 0.00 | 81 | 1018.1 |
| 20260507041449 | 61 | 244 | 0.0 | 0.0 | 0.00 | 0.00 | 0.00 | 81 | 1018.0 |
| 20260507040949 | 61 | 244 | 0.0 | 0.0 | 0.00 | 0.00 | 0.00 | 81 | 1018.0 |
| 20260507040449 | 61 | 277 | 0.0 | 0.9 | 0.00 | 0.00 | 0.00 | 82 | 1018.0 |
| 20260507035949 | 61 | 286 | 0.9 | 1.7 | 0.00 | 0.00 | 0.00 | 81 | 1017.9 |
| 20260507035449 | 61 | 258 | 0.9 | 1.7 | 0.00 | 0.00 | 0.00 | 81 | 1017.8 |
| 20260507034949 | 61 | 275 | 0.0 | 1.7 | 0.00 | 0.00 | 0.00 | 81 | 1017.8 |
| 20260507034449 | 61 | 288 | 1.7 | 1.7 | 0.00 | 0.00 | 0.00 | 81 | 1017.7 |
| 20260507033949 | 61 | 217 | 0.0 | 1.7 | 0.00 | 0.00 | 0.00 | 80 | 1017.6 |
| 20260507033449 | 62 | 324 | 0.0 | 1.7 | 0.00 | 0.00 | 0.00 | 81 | 1017.6 |
| 20260507032949 | 62 | 281 | 0.9 | 2.6 | 0.00 | 0.00 | 0.00 | 80 | 1017.6 |
| 20260507032449 | 62 | 257 | 0.9 | 1.7 | 0.00 | 0.00 | 0.00 | 79 | 1017.6 |
| 20260507031949 | 62 | 284 | 0.0 | 3.5 | 0.00 | 0.00 | 0.00 | 80 | 1017.5 |
| 20260507031449 | 62 | 302 | 0.9 | 2.6 | 0.00 | 0.00 | 0.00 | 79 | 1017.5 |
| 20260507030949 | 62 | 195 | 0.0 | 4.3 | 0.00 | 0.00 | 0.00 | 78 | 1017.3 |
| 20260507030449 | 62 | 284 | 1.7 | 6.1 | 0.00 | 0.00 | 0.00 | 77 | 1017.3 |
| 20260507025949 | 62 | 274 | 3.5 | 5.2 | 0.00 | 0.00 | 0.00 | 76 | 1014.6 |
| 20260507025449 | 62 | 239 | 3.5 | 5.2 | 0.00 | 0.00 | 0.00 | 75 | 1017.0 |
| 20260507024949 | 63 | 260 | 1.7 | 3.5 | 0.00 | 0.00 | 0.00 | 74 | 1015.8 |
| 20260507024449 | 63 | 262 | 0.0 | 4.3 | 0.00 | 0.00 | 0.00 | 73 | 1016.8 |
| 20260507023949 | 63 | 227 | 0.9 | 4.3 | 0.00 | 0.00 | 0.00 | 72 | 1016.8 |
| 20260507023449 | 64 | 244 | 2.6 | 5.2 | 0.00 | 0.00 | 0.00 | 72 | 1016.7 |
| 20260507022949 | 64 | 232 | 4.3 | 6.1 | 0.00 | 0.00 | 0.00 | 71 | 1016.6 |
| 20260507022449 | 64 | 244 | 1.7 | 6.1 | 0.00 | 0.00 | 0.00 | 71 | 1016.6 |
| 20260507021949 | 65 | 262 | 2.6 | 5.2 | 0.00 | 0.00 | 0.00 | 69 | 1016.5 |
| 20260507021449 | 64 | 257 | 2.6 | 5.2 | 0.00 | 0.00 | 0.00 | 69 | 1016.4 |
| 20260507020949 | 65 | 237 | 4.3 | 6.1 | 0.00 | 0.00 | 0.00 | 69 | 1016.4 |
| 20260507020449 | 65 | 241 | 4.3 | 7.0 | 0.00 | 0.00 | 0.00 | 68 | 1016.3 |
| 20260507015949 | 65 | 260 | 2.6 | 7.0 | 0.00 | 0.00 | 0.00 | 69 | 1016.3 |
| 20260507015449 | 65 | 209 | 4.3 | 7.8 | 0.00 | 0.00 | 0.00 | 68 | 1015.1 |
| 20260507014949 | 65 | 240 | 7.0 | 7.8 | 0.00 | 0.00 | 0.00 | 67 | 1015.1 |
| 20260507014449 | 66 | 250 | 2.6 | 7.0 | 0.00 | 0.00 | 0.00 | 67 | 1012.9 |
| 20260507013949 | 66 | 236 | 5.2 | 7.8 | 0.00 | 0.00 | 0.00 | 67 | 1016.2 |
| 20260507013449 | 66 | 217 | 4.3 | 8.7 | 0.00 | 0.00 | 0.00 | 66 | 1015.0 |
| 20260507012949 | 66 | 201 | 6.1 | 7.8 | 0.00 | 0.00 | 0.00 | 65 | 1014.9 |
| 20260507012450 | 66 | 254 | 6.1 | 7.8 | 0.00 | 0.00 | 0.00 | 65 | 1014.9 |
| 20260507011949 | 66 | 251 | 3.5 | 7.8 | 0.00 | 0.00 | 0.00 | 64 | 1013.6 |
| 20260507011449 | 68 | 260 | 5.2 | 7.0 | 0.00 | 0.00 | 0.00 | 63 | 1016.0 |
| 20260507010949 | 68 | 240 | 1.7 | 8.7 | 0.00 | 0.00 | 0.00 | 63 | 1016.1 |
| 20260507010449 | 67 | 291 | 6.1 | 7.8 | 0.00 | 0.00 | 0.00 | 64 | 1016.0 |
| 20260507005949 | 67 | 240 | 7.0 | 8.7 | 0.00 | 0.00 | 0.00 | 64 | 1016.0 |
| 20260507005542 | 67 | 177 | 3.5 | 7.8 | 0.00 | 0.00 | 0.00 | 63 | 1016.0 |
| 20260507005449 | 67 | 177 | 3.5 | 7.8 | 0.00 | 0.00 | 0.00 | 63 | 1016.0 |
| 20260507004949 | 68 | 253 | 4.3 | 9.6 | 0.00 | 0.00 | 0.00 | 63 | 1016.1 |
| 20260507004449 | 68 | 206 | 5.2 | 9.6 | 0.00 | 0.00 | 0.00 | 63 | 1016.0 |
| 20260507003949 | 68 | 258 | 2.6 | 8.7 | 0.00 | 0.00 | 0.00 | 62 | 1016.0 |
| 20260507003449 | 69 | 265 | 4.3 | 12.2 | 0.00 | 0.00 | 0.00 | 62 | 1016.0 |
| 20260507002949 | 69 | 248 | 9.6 | 11.3 | 0.00 | 0.00 | 0.00 | 61 | 1016.0 |
| 20260507002449 | 68 | 208 | 7.8 | 10.4 | 0.00 | 0.00 | 0.00 | 60 | 1016.0 |
| 20260507001949 | 69 | 237 | 4.3 | 8.7 | 0.00 | 0.00 | 0.00 | 58 | 1016.0 |
| 20260507001449 | 69 | 300 | 2.6 | 8.7 | 0.00 | 0.00 | 0.00 | 57 | 1016.0 |
| 20260507000949 | 70 | 241 | 6.1 | 9.6 | 0.00 | 0.00 | 0.00 | 56 | 1016.0 |
| 20260507000450 | 70 | 253 | 5.2 | 7.8 | 0.00 | 0.00 | 0.00 | 55 | 1016.0 |
| 20260506235949 | 69 | 265 | 4.3 | 9.6 | 0.00 | 0.00 | 0.00 | 55 | 1016.0 |
| 20260506235449 | 70 | 306 | 5.2 | 9.6 | 0.00 | 0.00 | 0.00 | 54 | 1016.1 |
| 20260506234949 | 69 | 271 | 4.3 | 8.7 | 0.00 | 0.00 | 0.00 | 53 | 1016.1 |
| 20260506234449 | 69 | 313 | 0.9 | 12.2 | 0.00 | 0.00 | 0.00 | 53 | 1016.1 |
| 20260506233949 | 70 | 267 | 4.3 | 8.7 | 0.00 | 0.00 | 0.00 | 52 | 1016.1 |
| 20260506233449 | 70 | 262 | 7.8 | 12.2 | 0.00 | 0.00 | 0.00 | 52 | 1016.1 |
| 20260506232949 | 70 | 277 | 5.2 | 9.6 | 0.00 | 0.00 | 0.00 | 51 | 1016.2 |
| 20260506232449 | 71 | 281 | 4.3 | 9.6 | 0.00 | 0.00 | 0.00 | 50 | 1016.3 |
| 20260506231949 | 71 | 281 | 3.5 | 7.8 | 0.00 | 0.00 | 0.00 | 51 | 1016.3 |
| 20260506231449 | 70 | 240 | 5.2 | 8.7 | 0.00 | 0.00 | 0.00 | 51 | 1016.4 |
| 20260506230949 | 71 | 286 | 3.5 | 9.6 | 0.00 | 0.00 | 0.00 | 51 | 1015.4 |
| 20260506230449 | 70 | 239 | 5.2 | 7.8 | 0.00 | 0.00 | 0.00 | 52 | 1016.5 |
| 20260506225949 | 70 | 279 | 7.0 | 9.6 | 0.00 | 0.00 | 0.00 | 52 | 1016.7 |
| 20260506225449 | 71 | 302 | 4.3 | 8.7 | 0.00 | 0.00 | 0.00 | 52 | 1016.7 |
| 20260506224949 | 70 | 230 | 7.0 | 8.7 | 0.00 | 0.00 | 0.00 | 50 | 1016.8 |
| 20260506224449 | 71 | 147 | 0.0 | 8.7 | 0.00 | 0.00 | 0.00 | 52 | 1016.9 |
| 20260506223949 | 70 | 226 | 4.3 | 8.7 | 0.00 | 0.00 | 0.00 | 53 | 1017.0 |
| 20260506223449 | 70 | 246 | 7.0 | 7.8 | 0.00 | 0.00 | 0.00 | 53 | 1017.1 |
| 20260506222949 | 70 | 244 | 7.0 | 10.4 | 0.00 | 0.00 | 0.00 | 53 | 1017.1 |
| 20260506222449 | 70 | 272 | 4.3 | 9.6 | 0.00 | 0.00 | 0.00 | 54 | 1017.3 |
| 20260506221949 | 70 | 288 | 3.5 | 8.7 | 0.00 | 0.00 | 0.00 | 54 | 1017.3 |
| 20260506221449 | 70 | 240 | 2.6 | 8.7 | 0.00 | 0.00 | 0.00 | 55 | 1017.4 |
| 20260506220949 | 70 | 255 | 7.0 | 11.3 | 0.00 | 0.00 | 0.00 | 55 | 1017.5 |
| 20260506220449 | 70 | 264 | 5.2 | 10.4 | 0.00 | 0.00 | 0.00 | 56 | 1017.5 |
| 20260506215949 | 69 | 250 | 5.2 | 9.6 | 0.00 | 0.00 | 0.00 | 56 | 1017.6 |
| 20260506215449 | 69 | 272 | 6.1 | 12.2 | 0.00 | 0.00 | 0.00 | 57 | 1017.7 |
| 20260506214949 | 69 | 188 | 4.3 | 10.4 | 0.00 | 0.00 | 0.00 | 57 | 1017.7 |
| 20260506214449 | 70 | 195 | 1.7 | 10.4 | 0.00 | 0.00 | 0.00 | 58 | 1017.7 |
| 20260506213949 | 69 | 261 | 4.3 | 11.3 | 0.00 | 0.00 | 0.00 | 58 | 1017.8 |
| 20260506213449 | 69 | 244 | 7.0 | 10.4 | 0.00 | 0.00 | 0.00 | 58 | 1017.8 |
| 20260506212949 | 70 | 225 | 6.1 | 12.2 | 0.00 | 0.00 | 0.00 | 57 | 1018.0 |
| 20260506212449 | 69 | 239 | 1.7 | 8.7 | 0.00 | 0.00 | 0.00 | 58 | 1018.0 |
| 20260506211949 | 70 | 267 | 0.0 | 8.7 | 0.00 | 0.00 | 0.00 | 59 | 1018.1 |
| 20260506211450 | 69 | 262 | 3.5 | 10.4 | 0.00 | 0.00 | 0.00 | 58 | 1018.2 |
| 20260506210949 | 69 | 210 | 4.3 | 12.2 | 0.00 | 0.00 | 0.00 | 59 | 1018.2 |
| 20260506210449 | 69 | 240 | 1.7 | 11.3 | 0.00 | 0.00 | 0.00 | 59 | 1018.3 |
| 20260506205950 | 70 | 241 | 7.0 | 8.7 | 0.00 | 0.00 | 0.00 | 58 | 1018.3 |
| 20260506205450 | 70 | 284 | 7.0 | 10.4 | 0.00 | 0.00 | 0.00 | 58 | 1018.3 |
| 20260506204949 | 70 | 305 | 7.0 | 8.7 | 0.00 | 0.00 | 0.00 | 59 | 1018.3 |
| 20260506204450 | 69 | 243 | 2.6 | 8.7 | 0.00 | 0.00 | 0.00 | 58 | 1018.3 |
| 20260506203950 | 69 | 275 | 0.9 | 7.0 | 0.00 | 0.00 | 0.00 | 59 | 1018.5 |
| 20260506203450 | 68 | 272 | 2.6 | 11.3 | 0.00 | 0.00 | 0.00 | 60 | 1018.6 |
| 20260506202950 | 69 | 229 | 6.1 | 9.6 | 0.00 | 0.00 | 0.00 | 60 | 1018.6 |
| 20260506202450 | 69 | 210 | 6.1 | 9.6 | 0.00 | 0.00 | 0.00 | 59 | 1018.6 |
| 20260506201950 | 70 | 199 | 1.7 | 8.7 | 0.00 | 0.00 | 0.00 | 59 | 1017.3 |
| 20260506201450 | 69 | 196 | 4.3 | 12.2 | 0.00 | 0.00 | 0.00 | 59 | 1017.4 |
| 20260506200950 | 69 | 219 | 6.1 | 11.3 | 0.00 | 0.00 | 0.00 | 59 | 1018.8 |
| 20260506200450 | 68 | 258 | 7.8 | 7.8 | 0.00 | 0.00 | 0.00 | 59 | 1019.0 |
| 20260506195950 | 69 | 239 | 2.6 | 8.7 | 0.00 | 0.00 | 0.00 | 60 | 1019.0 |
| 20260506195450 | 69 | 289 | 6.1 | 7.8 | 0.00 | 0.00 | 0.00 | 59 | 1019.1 |
| 20260506194950 | 69 | 254 | 1.7 | 5.2 | 0.00 | 0.00 | 0.00 | 59 | 1018.0 |
| 20260506194450 | 69 | 225 | 2.6 | 5.2 | 0.00 | 0.00 | 0.00 | 59 | 1017.8 |
| 20260506193950 | 69 | 330 | 1.7 | 7.0 | 0.00 | 0.00 | 0.00 | 59 | 1019.4 |
| 20260506193450 | 68 | 213 | 0.0 | 7.8 | 0.00 | 0.00 | 0.00 | 61 | 1019.4 |
| 20260506192950 | 68 | 255 | 6.1 | 7.8 | 0.00 | 0.00 | 0.00 | 61 | 1019.5 |
| 20260506192450 | 68 | 277 | 7.0 | 8.7 | 0.00 | 0.00 | 0.00 | 62 | 1019.5 |
| 20260506191950 | 68 | 282 | 7.0 | 10.4 | 0.00 | 0.00 | 0.00 | 61 | 1019.6 |
| 20260506191450 | 68 | 241 | 0.9 | 7.8 | 0.00 | 0.00 | 0.00 | 58 | 1019.7 |
| 20260506190950 | 68 | 312 | 2.6 | 9.6 | 0.00 | 0.00 | 0.00 | 57 | 1018.5 |
| 20260506190450 | 68 | 230 | 4.3 | 10.4 | 0.00 | 0.00 | 0.00 | 58 | 1018.8 |
| 20260506185950 | 68 | 167 | 0.0 | 7.0 | 0.00 | 0.00 | 0.00 | 56 | 1017.1 |
| 20260506185450 | 68 | 300 | 5.2 | 7.8 | 0.00 | 0.00 | 0.00 | 55 | 1019.9 |
| 20260506184950 | 68 | 255 | 5.2 | 7.8 | 0.00 | 0.00 | 0.00 | 55 | 1020.0 |
| 20260506184450 | 68 | 261 | 4.3 | 9.6 | 0.00 | 0.00 | 0.00 | 54 | 1020.0 |
| 20260506183950 | 68 | 326 | 2.6 | 7.0 | 0.00 | 0.00 | 0.00 | 55 | 1020.0 |
| 20260506183450 | 67 | 289 | 2.6 | 6.1 | 0.00 | 0.00 | 0.00 | 56 | 1020.1 |
| 20260506182950 | 67 | 241 | 6.1 | 7.0 | 0.00 | 0.00 | 0.00 | 55 | 1020.2 |
| 20260506182450 | 66 | 282 | 3.5 | 8.7 | 0.00 | 0.00 | 0.00 | 56 | 1020.3 |
| 20260506181950 | 66 | 236 | 8.7 | 8.7 | 0.00 | 0.00 | 0.00 | 55 | 1020.3 |
| 20260506181450 | 66 | 232 | 0.9 | 6.1 | 0.00 | 0.00 | 0.00 | 57 | 1020.3 |
| 20260506180950 | 66 | 225 | 3.5 | 6.1 | 0.00 | 0.00 | 0.00 | 58 | 1019.1 |
| 20260506180450 | 66 | 251 | 1.7 | 5.2 | 0.00 | 0.00 | 0.00 | 60 | 1019.2 |
| 20260506175950 | 65 | 271 | 2.6 | 4.3 | 0.00 | 0.00 | 0.00 | 61 | 1017.6 |
| 20260506175450 | 64 | 239 | 3.5 | 7.8 | 0.00 | 0.00 | 0.00 | 60 | 1019.3 |
| 20260506174950 | 65 | 244 | 0.0 | 7.0 | 0.00 | 0.00 | 0.00 | 60 | 1016.7 |
| 20260506174450 | 65 | 239 | 0.0 | 2.6 | 0.00 | 0.00 | 0.00 | 62 | 1020.4 |
| 20260506173950 | 65 | 254 | 0.0 | 4.3 | 0.00 | 0.00 | 0.00 | 62 | 1020.4 |
| 20260506173450 | 65 | 343 | 2.6 | 4.3 | 0.00 | 0.00 | 0.00 | 61 | 1020.4 |
| 20260506172950 | 65 | 21 | 0.0 | 0.9 | 0.00 | 0.00 | 0.00 | 63 | 1020.5 |
| 20260506172450 | 65 | 327 | 0.0 | 1.7 | 0.00 | 0.00 | 0.00 | 61 | 1020.5 |
| 20260506171950 | 64 | 90 | 0.0 | 6.1 | 0.00 | 0.00 | 0.00 | 64 | 1020.5 |
| 20260506171450 | 64 | 153 | 2.6 | 3.5 | 0.00 | 0.00 | 0.00 | 67 | 1020.5 |
| 20260506170950 | 64 | 158 | 0.9 | 4.3 | 0.00 | 0.00 | 0.00 | 67 | 1020.6 |
| 20260506170450 | 63 | 129 | 0.0 | 4.3 | 0.00 | 0.00 | 0.00 | 68 | 1020.7 |
| 20260506165950 | 63 | 123 | 3.5 | 6.1 | 0.00 | 0.00 | 0.00 | 69 | 1020.8 |
| 20260506165450 | 63 | 104 | 0.0 | 1.7 | 0.00 | 0.00 | 0.00 | 70 | 1020.8 |
| 20260506164950 | 63 | 164 | 0.0 | 5.2 | 0.00 | 0.00 | 0.00 | 71 | 1020.8 |
| 20260506164450 | 63 | 226 | 0.0 | 2.6 | 0.00 | 0.00 | 0.00 | 71 | 1020.8 |
| 20260506163950 | 62 | 172 | 0.0 | 6.1 | 0.00 | 0.00 | 0.00 | 72 | 1020.8 |
| 20260506163450 | 62 | 174 | 3.5 | 4.3 | 0.00 | 0.00 | 0.00 | 71 | 1020.9 |
| 20260506162950 | 63 | 133 | 0.0 | 1.7 | 0.00 | 0.00 | 0.00 | 72 | 1020.9 |
| 20260506162450 | 62 | 157 | 0.0 | 0.0 | 0.00 | 0.00 | 0.00 | 72 | 1021.0 |
| 20260506161950 | 62 | 157 | 0.0 | 3.5 | 0.00 | 0.00 | 0.00 | 72 | 1021.0 |
| 20260506161450 | 62 | 330 | 0.0 | 1.7 | 0.00 | 0.00 | 0.00 | 72 | 1021.0 |
| 20260506160950 | 61 | 147 | 0.9 | 1.7 | 0.00 | 0.00 | 0.00 | 73 | 1021.0 |
| 20260506160450 | 61 | 340 | 0.0 | 0.0 | 0.00 | 0.00 | 0.00 | 75 | 1021.0 |
| 20260506155950 | 60 | 340 | 0.0 | 0.9 | 0.00 | 0.00 | 0.00 | 76 | 1018.7 |
| 20260506155450 | 60 | 167 | 0.0 | 3.5 | 0.00 | 0.00 | 0.00 | 76 | 1020.0 |
| 20260506154950 | 60 | 248 | 1.7 | 3.5 | 0.00 | 0.00 | 0.00 | 76 | 1021.0 |
| 20260506154450 | 60 | 84 | 0.0 | 4.3 | 0.00 | 0.00 | 0.00 | 76 | 1021.0 |
| 20260506153950 | 60 | 102 | 0.9 | 3.5 | 0.00 | 0.00 | 0.00 | 75 | 1021.0 |
| 20260506153450 | 60 | 101 | 0.0 | 2.6 | 0.00 | 0.00 | 0.00 | 76 | 1021.0 |
| 20260506152950 | 60 | 199 | 0.0 | 3.5 | 0.00 | 0.00 | 0.00 | 78 | 1021.0 |
| 20260506152450 | 59 | 196 | 2.6 | 4.3 | 0.00 | 0.00 | 0.00 | 78 | 1021.0 |
| 20260506151950 | 59 | 180 | 2.6 | 3.5 | 0.00 | 0.00 | 0.00 | 78 | 1020.9 |
| 20260506151450 | 59 | 206 | 0.9 | 4.3 | 0.00 | 0.00 | 0.00 | 78 | 1020.9 |
| 20260506150950 | 60 | 126 | 0.0 | 1.7 | 0.00 | 0.00 | 0.00 | 79 | 1020.9 |
| 20260506150450 | 59 | 95 | 0.0 | 3.5 | 0.00 | 0.00 | 0.00 | 78 | 1020.9 |
| 20260506145950 | 59 | 74 | 0.0 | 1.7 | 0.00 | 0.00 | 0.00 | 80 | 1020.9 |
| 20260506145450 | 59 | 125 | 0.9 | 2.6 | 0.00 | 0.00 | 0.00 | 80 | 1021.0 |
| 20260506144950 | 59 | 135 | 2.6 | 2.6 | 0.00 | 0.00 | 0.00 | 79 | 1021.0 |
| 20260506144450 | 59 | 101 | 0.0 | 2.6 | 0.00 | 0.00 | 0.00 | 78 | 1021.0 |
| 20260506143950 | 59 | 23 | 0.0 | 0.9 | 0.00 | 0.00 | 0.00 | 78 | 1021.0 |
| 20260506143450 | 59 | 99 | 0.9 | 0.9 | 0.00 | 0.00 | 0.00 | 78 | 1020.8 |
| 20260506142950 | 58 | 57 | 0.0 | 0.9 | 0.00 | 0.00 | 0.00 | 79 | 1020.8 |
| 20260506142450 | 58 | 67 | 0.0 | 1.7 | 0.00 | 0.00 | 0.00 | 80 | 1020.7 |
| 20260506141950 | 58 | 47 | 0.9 | 2.6 | 0.00 | 0.00 | 0.00 | 79 | 1020.7 |
| 20260506141450 | 57 | 23 | 0.0 | 0.9 | 0.00 | 0.00 | 0.00 | 80 | 1020.7 |
| 20260506140950 | 57 | 39 | 0.9 | 0.9 | 0.00 | 0.00 | 0.00 | 81 | 1020.7 |
| 20260506140450 | 56 | 52 | 0.0 | 0.9 | 0.00 | 0.00 | 0.00 | 82 | 1019.4 |
| 20260506135950 | 56 | 40 | 0.9 | 0.9 | 0.00 | 0.00 | 0.00 | 83 | 1020.7 |
| 20260506135450 | 55 | 50 | 0.0 | 0.0 | 0.00 | 0.00 | 0.00 | 85 | 1020.6 |
| 20260506134950 | 54 | 50 | 0.0 | 0.0 | 0.00 | 0.00 | 0.00 | 87 | 1017.5 |
| 20260506134450 | 53 | 50 | 0.0 | 0.0 | 0.00 | 0.00 | 0.00 | 87 | 1020.5 |
| 20260506133950 | 52 | 50 | 0.0 | 0.0 | 0.00 | 0.00 | 0.00 | 88 | 1020.5 |
| 20260506133450 | 52 | 50 | 0.0 | 0.0 | 0.00 | 0.00 | 0.00 | 89 | 1020.4 |
| 20260506132950 | 52 | 50 | 0.0 | 1.7 | 0.00 | 0.00 | 0.00 | 88 | 1020.3 |
| 20260506132450 | 52 | 49 | 0.0 | 0.0 | 0.00 | 0.00 | 0.00 | 88 | 1020.2 |
| 20260506131950 | 52 | 49 | 0.0 | 0.0 | 0.00 | 0.00 | 0.00 | 89 | 1020.1 |
| 20260506131450 | 52 | 49 | 0.0 | 0.0 | 0.00 | 0.00 | 0.00 | 89 | 1020.1 |
| 20260506130950 | 52 | 49 | 0.0 | 0.0 | 0.00 | 0.00 | 0.00 | 89 | 1020.0 |
| 20260506130450 | 52 | 23 | 0.0 | 0.0 | 0.00 | 0.00 | 0.00 | 89 | 1020.0 |
| 20260506125950 | 52 | 23 | 0.0 | 0.0 | 0.00 | 0.00 | 0.00 | 88 | 1019.9 |
| 20260506125450 | 52 | 23 | 0.0 | 0.0 | 0.00 | 0.00 | 0.00 | 88 | 1019.9 |
| 20260506124950 | 52 | 23 | 0.0 | 0.0 | 0.00 | 0.00 | 0.00 | 88 | 1019.9 |
| 20260506124450 | 52 | 23 | 0.0 | 0.9 | 0.00 | 0.00 | 0.00 | 87 | 1019.8 |
| 20260506123950 | 53 | 15 | 0.0 | 0.9 | 0.00 | 0.00 | 0.00 | 88 | 1019.8 |
| 20260506123450 | 52 | 40 | 0.0 | 0.9 | 0.00 | 0.00 | 0.00 | 87 | 1019.7 |
| 20260506122950 | 53 | 23 | 0.0 | 0.9 | 0.00 | 0.00 | 0.00 | 87 | 1019.7 |
| 20260506122450 | 53 | 49 | 0.9 | 0.9 | 0.00 | 0.00 | 0.00 | 87 | 1019.6 |
| 20260506121950 | 53 | 45 | 0.9 | 1.7 | 0.00 | 0.00 | 0.00 | 87 | 1019.6 |
| 20260506121450 | 53 | 39 | 0.9 | 0.9 | 0.00 | 0.00 | 0.00 | 87 | 1019.5 |
| 20260506120950 | 52 | 36 | 0.9 | 0.9 | 0.00 | 0.00 | 0.00 | 87 | 1019.5 |
| 20260506120450 | 52 | 59 | 0.0 | 0.9 | 0.00 | 0.00 | 0.00 | 86 | 1019.5 |
| 20260506115950 | 52 | 36 | 0.0 | 1.7 | 0.00 | 0.00 | 0.00 | 86 | 1019.5 |
| 20260506115450 | 52 | 22 | 0.0 | 1.7 | 0.00 | 0.00 | 0.00 | 86 | 1019.5 |
| 20260506114950 | 52 | 52 | 0.9 | 1.7 | 0.00 | 0.00 | 0.00 | 86 | 1019.5 |
| 20260506114450 | 52 | 42 | 0.9 | 1.7 | 0.00 | 0.00 | 0.00 | 86 | 1019.5 |
| 20260506113950 | 52 | 49 | 0.9 | 1.7 | 0.00 | 0.00 | 0.00 | 86 | 1019.5 |
| 20260506113450 | 52 | 46 | 0.9 | 2.6 | 0.00 | 0.00 | 0.00 | 85 | 1019.6 |
| 20260506112950 | 52 | 47 | 0.9 | 1.7 | 0.00 | 0.00 | 0.00 | 85 | 1019.5 |
| 20260506112450 | 52 | 23 | 0.9 | 0.9 | 0.00 | 0.00 | 0.00 | 85 | 1019.5 |
| 20260506111950 | 52 | 26 | 0.0 | 1.7 | 0.00 | 0.00 | 0.00 | 85 | 1019.4 |
| 20260506111450 | 52 | 63 | 1.7 | 2.6 | 0.00 | 0.00 | 0.00 | 86 | 1019.4 |
| 20260506110950 | 52 | 75 | 0.9 | 0.9 | 0.00 | 0.00 | 0.00 | 86 | 1019.4 |
| 20260506110450 | 52 | 19 | 0.0 | 0.0 | 0.00 | 0.00 | 0.00 | 85 | 1019.4 |
| 20260506105950 | 53 | 19 | 0.0 | 0.9 | 0.00 | 0.00 | 0.00 | 85 | 1019.4 |
| 20260506105450 | 52 | 42 | 0.9 | 0.9 | 0.00 | 0.01 | 0.00 | 86 | 1019.3 |
| 20260506104950 | 52 | 59 | 0.9 | 0.9 | 0.00 | 0.01 | 0.00 | 86 | 1019.3 |
| 20260506104450 | 52 | 39 | 0.0 | 1.7 | 0.00 | 0.01 | 0.00 | 86 | 1019.4 |
| 20260506103950 | 52 | 59 | 0.9 | 1.7 | 0.00 | 0.01 | 0.00 | 86 | 1019.3 |
| 20260506103450 | 52 | 63 | 0.9 | 2.6 | 0.00 | 0.01 | 0.00 | 86 | 1019.3 |
| 20260506102950 | 53 | 45 | 0.0 | 0.9 | 0.00 | 0.01 | 0.00 | 86 | 1019.4 |
| 20260506102450 | 53 | 5 | 0.0 | 1.7 | 0.00 | 0.01 | 0.00 | 86 | 1019.3 |
| 20260506101950 | 53 | 54 | 0.9 | 1.7 | 0.00 | 0.01 | 0.00 | 86 | 1019.3 |
| 20260506101450 | 53 | 57 | 0.9 | 1.7 | 0.00 | 0.01 | 0.00 | 85 | 1019.2 |
| 20260506100950 | 53 | 66 | 0.9 | 0.9 | 0.00 | 0.01 | 0.00 | 85 | 1019.2 |
| 20260506100450 | 53 | 29 | 0.0 | 0.9 | 0.00 | 0.01 | 0.00 | 85 | 1019.2 |
| 20260506095950 | 53 | 32 | 0.9 | 1.7 | 0.00 | 0.01 | 0.00 | 85 | 1019.2 |
| 20260506095450 | 53 | 61 | 1.7 | 1.7 | 0.00 | 0.01 | 0.00 | 85 | 1019.2 |
| 20260506094950 | 53 | 50 | 0.0 | 0.9 | 0.00 | 0.01 | 0.00 | 85 | 1019.3 |
| 20260506094450 | 53 | 37 | 0.0 | 0.9 | 0.00 | 0.01 | 0.00 | 85 | 1019.3 |
| 20260506093950 | 53 | 23 | 0.9 | 1.7 | 0.00 | 0.01 | 0.00 | 85 | 1019.3 |
| 20260506093450 | 53 | 59 | 0.9 | 1.7 | 0.00 | 0.01 | 0.00 | 85 | 1019.3 |
| 20260506092950 | 54 | 52 | 0.0 | 1.7 | 0.00 | 0.01 | 0.00 | 85 | 1019.3 |
| 20260506092450 | 54 | 67 | 0.9 | 1.7 | 0.00 | 0.01 | 0.00 | 85 | 1019.3 |
| 20260506091950 | 54 | 28 | 0.0 | 1.7 | 0.00 | 0.01 | 0.00 | 85 | 1019.3 |
| 20260506091450 | 53 | 30 | 0.9 | 2.6 | 0.00 | 0.01 | 0.00 | 86 | 1019.3 |
| 20260506090950 | 53 | 32 | 0.9 | 2.6 | 0.00 | 0.01 | 0.00 | 86 | 1019.3 |
| 20260506090450 | 53 | 63 | 0.9 | 1.7 | 0.00 | 0.01 | 0.00 | 86 | 1019.3 |
| 20260506085950 | 54 | 60 | 0.9 | 1.7 | 0.00 | 0.01 | 0.00 | 86 | 1019.3 |
| 20260506085450 | 54 | 56 | 0.9 | 0.9 | 0.00 | 0.01 | 0.00 | 86 | 1019.4 |
| 20260506084950 | 54 | 37 | 0.0 | 1.7 | 0.00 | 0.01 | 0.00 | 86 | 1019.5 |
| 20260506084450 | 54 | 59 | 0.9 | 1.7 | 0.00 | 0.01 | 0.00 | 86 | 1019.5 |
| 20260506083950 | 54 | 57 | 0.9 | 2.6 | 0.00 | 0.01 | 0.00 | 86 | 1019.5 |
| 20260506083450 | 54 | 78 | 0.0 | 0.9 | 0.00 | 0.01 | 0.00 | 86 | 1019.5 |
| 20260506082950 | 54 | 4 | 0.0 | 1.7 | 0.00 | 0.01 | 0.00 | 86 | 1019.5 |
| 20260506082450 | 54 | 66 | 0.9 | 0.9 | 0.00 | 0.01 | 0.00 | 86 | 1019.4 |
| 20260506081950 | 54 | 45 | 0.9 | 2.6 | 0.00 | 0.01 | 0.00 | 86 | 1019.6 |
| 20260506081450 | 54 | 45 | 0.0 | 0.9 | 0.00 | 0.01 | 0.00 | 86 | 1019.6 |
| 20260506080950 | 54 | 46 | 0.9 | 1.7 | 0.00 | 0.01 | 0.00 | 86 | 1019.6 |